Weather History for KFRI - February, 2014

Change the Weather History Date:

Saturday, February 22, 2014

  Actual Average (KMHK) Record (KMHK)
Temperature  
Mean Temperature 40 °F 35 °F  
Max Temperature 56 °F 47 °F 66 °F (2012)
Min Temperature 24 °F 22 °F 10 °F (2009)
Degree Days  
Heating Degree Days 25 30  
Month to date heating degree days 721  
Since 1 July heating degree days 3987  
Cooling Degree Days 0 0  
Month to date cooling degree days 0  
Year to date cooling degree days 0  
Moisture  
Dew Point 27 °F    
Average Humidity 68    
Maximum Humidity 99    
Minimum Humidity 29    
Precipitation  
Precipitation 0.00 in 0.04 in 0.07 in (1999)
Month to date precipitation 0.83  
Year to date precipitation 1.48  
Sea Level Pressure  
Sea Level Pressure 29.97 in    
Wind  
Wind Speed 6 mph (NE)    
Max Wind Speed 17 mph    
Max Gust Speed 24 mph    
Visibility 10 miles    
Events      
T = Trace of Precipitation, MM = Missing Value Source: NWS Daily Summary

Daily Weather History Graph

Daily Weather History Graph

Search for Another Location

Airport or City:

Trip Planner

Search our weather history database for the weather conditions in past years. The results will help you decide how hot, cold, wet, or windy it might be!

Date:

Astronomy

Feb. 22, 2014 Rise Set
Actual Time 7:09 AM CST 6:12 PM CST
Civil Twilight 6:42 AM CST 6:39 PM CST
Nautical Twilight 6:11 AM CST 7:10 PM CST
Astronomical Twilight 5:40 AM CST 7:41 PM CST
Moon 1:04 AM CST (2/22) 11:25 AM CST (2/22)
Length of Visible Light 11h 56m
Length of Day
11h 02m
Waning Gibbous, 50% of the Moon is Illuminated
Feb 22
Waning Gibbous
Mar 1
New
Mar 8
First Quarter
Mar 16
Full
Mar 23
Last Quarter

Hourly Weather History & Observations

Time (CST) Temp. Windchill Dew Point Humidity Pressure Visibility Wind Dir Wind Speed Gust Speed Precip Events Conditions
12:58 AM 32.5 °F - 24.3 °F 72% 29.94 in 10.0 mi Calm Calm - N/A   Clear
1:58 AM 29.7 °F - 26.8 °F 89% 29.92 in 10.0 mi Calm Calm - N/A   Clear
2:58 AM 27.1 °F - 25.7 °F 94% 29.90 in 10.0 mi NNE 2.3 mph - N/A   Clear
3:58 AM 26.1 °F - 25.9 °F 99% 29.89 in 10.0 mi Calm Calm - N/A   Clear
4:58 AM 24.8 °F 19.1 °F 24.6 °F 99% 29.91 in 10.0 mi NNE 4.6 mph - N/A   Clear
5:58 AM 24.6 °F - 24.4 °F 99% 29.93 in 10.0 mi ENE 1.2 mph - N/A   Clear
6:58 AM 25.5 °F - 25.3 °F 99% 29.94 in 10.0 mi Calm Calm - N/A   Clear
7:58 AM 24.4 °F - 24.1 °F 99% 29.96 in 10.0 mi Calm Calm - N/A   Clear
8:58 AM 31.6 °F 28.3 °F 30.2 °F 94% 29.96 in 10.0 mi North 3.5 mph - N/A   Clear
9:58 AM 38.8 °F 36.5 °F 27.5 °F 64% 29.96 in 10.0 mi NNE 3.5 mph - N/A   Clear
10:58 AM 48.0 °F - 25.3 °F 41% 29.96 in 10.0 mi NE 9.2 mph - N/A   Clear
11:58 AM 53.4 °F - 25.2 °F 33% 29.93 in 10.0 mi NE 12.7 mph - N/A   Clear
12:58 PM 55.6 °F - 23.9 °F 29% 29.91 in 10.0 mi ENE 9.2 mph - N/A   Clear
1:58 PM 56.1 °F - 28.2 °F 34% 29.90 in 10.0 mi NNE 17.3 mph - N/A   Clear
2:26 PM 55.4 °F - 28.4 °F 36% 29.90 in 10.0 mi NE 12.7 mph - N/A   Clear
2:58 PM 54.5 °F - 29.3 °F 38% 29.93 in 10.0 mi NNE 15.0 mph - N/A   Clear
3:58 PM 51.8 °F - 30.7 °F 45% 29.94 in 10.0 mi NE 16.1 mph - N/A   Clear
4:58 PM 48.4 °F - 30.0 °F 49% 29.96 in 10.0 mi NE 17.3 mph - N/A   Clear
5:58 PM 44.2 °F 37.0 °F 29.8 °F 57% 29.99 in 10.0 mi NNE 16.1 mph - N/A   Clear
6:58 PM 39.2 °F 31.6 °F 28.6 °F 66% 30.03 in 10.0 mi NE 12.7 mph - N/A   Clear
7:58 PM 36.9 °F 27.5 °F 27.7 °F 69% 30.04 in 10.0 mi NE 16.1 mph - N/A   Clear
8:58 PM 34.9 °F 25.7 °F 27.9 °F 76% 30.06 in 10.0 mi NE 13.8 mph - N/A   Clear
9:58 PM 33.6 °F 22.9 °F 27.0 °F 77% 30.07 in 10.0 mi NE 17.3 mph - N/A   Clear
10:58 PM 32.2 °F 22.3 °F 23.5 °F 70% 30.11 in 10.0 mi NNE 13.8 mph - N/A   Clear
11:58 PM 31.3 °F 20.3 °F 20.5 °F 64% 30.12 in 10.0 mi NNE 16.1 mph 24.2 mph N/A   Clear